Location: *
(44.9308°N, 123.0197°W)
Time: 21:59:17
(UTC+00:00)

SeaSat 1 - Pass Details

Date: 09 April 2020
Orbit: 745 x 746 km, 108.0° (Epoch: 02 June)

Event Time Altitude Azimuth Distance (km) Brightness Sun altitude
Rises 12:49:41 0° 153° (SSE) 3,173 5.8 -8.9°
Reaches altitude 10° 12:51:56 10° 154° (SSE) 2,254 5.0 -8.5°
Maximum altitude 12:56:50 83° 241° (WSW) 757 2.4 -7.7°
Drops below altitude 10° 13:01:48 10° 331° (NNW) 2,270 4.8 -6.8°
Sets 13:04:04 0° 332° (NNW) 3,198 5.6 -6.5°
